Regional Weather Roundup
Issued by NWS Little Rock, AR

Home | Current Version | Previous Version | Text Only | Print | Product List | Glossary On
Versions: 1 2 3 4 5 6 7 8 9 10 11 12 13 14 15 16 17 18 19 20 21 22 23 24 25 26 27 28 29 30 31 32 33 34 35 36 37 38 39 40 41 42 43 44 45 46 47 48 49 50
978
ASUS44 KLZK 192205
RWRLZK

WEATHER ROUNDUP FOR ARKANSAS
NATIONAL WEATHER SERVICE LITTLE ROCK AR
400 PM CST MON FEB 19 2018

NOTE: "FAIR" INDICATES FEW OR NO CLOUDS BELOW 12,000 FEET WITH NO
SIGNIFICANT WEATHER AND/OR OBSTRUCTIONS TO VISIBILITY.

ARZ001-003-010-029-192300-
NORTHWEST ARKANSAS

CITY           SKY/WX    TMP DP  RH WIND       PRES   REMARKS
FAYETTEVILLE   CLOUDY    65  61  87 S17G26    29.84S
FORT SMITH     LGT RAIN  67  63  87 SE5       29.84F
HARRISON       CLOUDY    67  58  72 S17G23    29.88R
BENTONVILLE    CLOUDY    65  59  81 S12       29.84R
SILOAM SPGS    CLOUDY    66  60  81 S17G24    29.82S
HIGHFILL       CLOUDY    65  60  84 S21       29.82R
SPRINGDALE     CLOUDY    66  61  82 S17G29    29.85S
$$

ARZ004-005-016-192300-
NORTH CENTRAL ARKANSAS

CITY           SKY/WX    TMP DP  RH WIND       PRES   REMARKS
BATESVILLE     CLOUDY    72  59  63 S12       29.95F
FLIPPIN        CLOUDY    70  58  65 S10G18    29.89S
MTN HOME       CLOUDY    69  58  67 SW14G23   29.89S
$$

ARZ040-041-192300-
WEST CENTRAL ARKANSAS

CITY           SKY/WX    TMP DP  RH WIND       PRES   REMARKS
MENA           CLOUDY    72  66  83 SE8       29.89F
MOUNT IDA      MOSUNNY   73  60  63 VRB7G18   29.91R
$$

ARZ009-017-025-026-028-192300-
NORTHEAST ARKANSAS

CITY           SKY/WX    TMP DP  RH WIND       PRES   REMARKS
JONESBORO      FAIR      74  64  71 SW21G28   29.97S
NEWPORT          N/A     71  61  70 S20G25    29.97S
WALNUT RIDGE   FAIR      70  61  73 S21G29    29.95S
BLYTHEVILLE    FAIR      73  62  68 SW17      30.00R
$$

ARZ022-023-033-042-044-192300-
CENTRAL ARKANSAS

CITY           SKY/WX    TMP DP  RH WIND       PRES   REMARKS
LITTLE ROCK    PTSUNNY   75  59  57 S20G26    29.95F
N LITTLE ROCK    N/A     74  60  63 S15G30    29.92F
JACKSONVILLE   FAIR      75  60  57 S18G28    29.92F
SEARCY         FAIR      73  62  68 S16       29.95F
HOT SPRINGS    PTSUNNY   75  58  55 S12G22    29.94S
RUSSELLVILLE   PTSUNNY   74  58  57 S15G22    29.88F
CLINTON        CLOUDY    72  59  64 VRB5      29.93S
$$

ARZ036-192300-
EAST ARKANSAS

CITY           SKY/WX    TMP DP  RH WIND       PRES   REMARKS
WEST MEMPHIS   FAIR      72  62  71 S17G26    30.00S
$$

ARZ050-053-066-070-073-192300-
SOUTHWEST ARKANSAS

CITY           SKY/WX    TMP DP  RH WIND       PRES   REMARKS
ARKADELPHIA    FAIR      76  61  59 S8        29.94S
CAMDEN         FAIR      81  54  39 S15G22    29.93S
TEXARKANA      PTSUNNY   77  57  50 S12G23    29.91S
EL DORADO      FAIR      78  59  51 S12G23    29.96R
DE QUEEN       CLOUDY    74  63  68 SE9       29.86F
$$

ARZ056-057-069-192300-
SOUTHEAST ARKANSAS

CITY           SKY/WX    TMP DP  RH WIND       PRES   REMARKS
PINE BLUFF     FAIR      77  62  59 S12       29.96F
STUTTGART      FAIR      75  63  66 S16       29.98F
MONTICELLO     FAIR      78  58  49 S13G28    29.97F

$$






USA.gov is the U.S. government's official web portal to all federal, state and local government web resources and services.